Regional Weather Roundup
Issued by NWS

Home | Current Version | Previous Version | Text Only | Print | Product List | Glossary Off
Versions: 1 2 3 4 5 6 7 8 9 10 11 12 13 14 15 16 17 18 19 20 21 22 23 24 25 26 27 28 29 30 31 32 33 34 35 36 37 38 39 40 41 42 43 44 45 46 47 48 49 50

182
ASUS43 KBIS 291610
RWRND

NORTH DAKOTA REGIONAL WEATHER ROUNDUP
NATIONAL WEATHER SERVICE BISMARCK ND
1100 AM CDT SAT APR 29 2017

NOTE: "FAIR" INDICATES FEW OR NO CLOUDS BELOW 12,000 FEET WITH NO
SIGNIFICANT WEATHER AND/OR OBSTRUCTIONS TO VISIBILITY.


NDZ001>003-009>011-017-291700-
NORTHWEST NORTH DAKOTA

CITY           SKY/WX    TMP DP  RH WIND       PRES   REMARKS
WILLISTON      PTSUNNY   52  29  41 CALM      30.26R
MINOT          FAIR      59  24  26 SW14G23   30.24R
MINOT AFB      CLOUDY    59  29  31 SW10G18   30.23S
$$

NDZ018>021-031>035-040>046-291700-
SOUTHWEST NORTH DAKOTA

CITY           SKY/WX    TMP DP  RH WIND       PRES   REMARKS
BISMARCK       FAIR      52  26  36 CALM      30.31F
DICKINSON      FAIR      54  20  26 VRB5      30.25F
GARRISON         N/A     53  23  31 SW14      30.27S
HETTINGER ARPT CLOUDY    51  21  30 W7        30.29F
$$

NDZ004>008-012>016-024-026-027-054-291700-
NORTHEAST NORTH DAKOTA

CITY           SKY/WX    TMP DP  RH WIND       PRES   REMARKS
GRAND FORKS    MOSUNNY   51  26  37 S9        30.36R
GRND FRKS AFB  SUNNY     51  24  35 S9        30.35R
DEVILS LAKE    FAIR      52  19  28 S9        30.31S HAZE
$$

NDZ022-023-025-028>030-036>039-047>053-291700-
SOUTHEAST NORTH DAKOTA

CITY           SKY/WX    TMP DP  RH WIND       PRES   REMARKS
FARGO          SUNNY     52  21  29 S10       30.34F
JAMESTOWN      FAIR      51  17  26 VRB3      30.31F
$$





USA.gov is the U.S. government's official web portal to all federal, state and local government web resources and services.